GLOBALSTAR M093 [+]

Last updated on Fri Dec 29 2023 00:02:57 GMT+0000 (Coordinated Universal Time)

1 39073U 13005B 23361.67527065 -.00000105 00000+0 -50123-5 0 9997 2 39073 51.9812 104.8347 0001193 131.3554 228.7415 12.62278517502886
UTC large
Height (km)
Speed (km/s)
/
Latitude / Longitude
Inclination (degrees)
Orbital Period (minutes)
Azimuth
Elevation
Range (km)
Doppler Factor

Next 0 passes for location: London (51.5072 / 0.1276)

Sorry there are no passes over London.